| time (UTC) | temp C | wind direction | speed KPH | gust KPH | rain 1hr cm | rain 24hr cm | rain mn cm | humidity % | barometer mb |
| 20260506212936 | 30 | 3 | 1.6 | 4.8 | 0.00 | 0.00 | 0.00 | 74 | 1009.2 |
| 20260506212432 | 30 | 108 | 3.2 | 6.4 | 0.00 | 0.00 | 0.00 | 75 | 1009.3 |
| 20260506211927 | 30 | 130 | 0.0 | 3.2 | 0.00 | 0.00 | 0.00 | 73 | 1009.2 |
| 20260506211424 | 31 | 113 | 4.8 | 6.4 | 0.00 | 0.00 | 0.00 | 71 | 1009.3 |
| 20260506210921 | 31 | 238 | 0.0 | 0.0 | 0.00 | 0.00 | 0.00 | 73 | 1009.2 |
| 20260506210417 | 31 | 284 | 3.2 | 3.2 | 0.00 | 0.00 | 0.00 | 73 | 1009.2 |
| 20260506205915 | 30 | 127 | 0.0 | 3.2 | 0.00 | 0.00 | 0.00 | 73 | 1009.1 |
| 20260506205410 | 30 | 209 | 1.6 | 1.6 | 0.00 | 0.00 | 0.00 | 75 | 1009.1 |
| 20260506204907 | 29 | 343 | 1.6 | 4.8 | 0.00 | 0.00 | 0.00 | 76 | 1009.3 |
| 20260506204405 | 29 | 197 | 3.2 | 3.2 | 0.00 | 0.00 | 0.00 | 78 | 1009.4 |
| 20260506203902 | 29 | 251 | 1.6 | 3.2 | 0.00 | 0.00 | 0.00 | 78 | 1009.5 |
| 20260506203359 | 29 | 73 | 3.2 | 12.9 | 0.00 | 0.00 | 0.00 | 77 | 1009.4 |
| 20260506202856 | 30 | 163 | 4.8 | 11.3 | 0.00 | 0.00 | 0.00 | 75 | 1009.5 |
| 20260506202353 | 30 | 342 | 1.6 | 3.2 | 0.00 | 0.00 | 0.00 | 76 | 1009.6 |
| 20260506201849 | 30 | 147 | 3.2 | 9.7 | 0.00 | 0.00 | 0.00 | 76 | 1009.7 |
| 20260506201347 | 30 | 93 | 6.4 | 11.3 | 0.00 | 0.00 | 0.00 | 73 | 1009.7 |
| 20260506200843 | 30 | 100 | 1.6 | 3.2 | 0.00 | 0.00 | 0.00 | 73 | 1009.7 |
| 20260506200339 | 30 | 162 | 3.2 | 4.8 | 0.00 | 0.00 | 0.00 | 73 | 1009.8 |
| 20260506195836 | 30 | 132 | 6.4 | 12.9 | 0.00 | 0.00 | 0.00 | 73 | 1009.8 |
| 20260506195333 | 30 | 13 | 1.6 | 3.2 | 0.00 | 0.00 | 0.00 | 74 | 1009.9 |
| 20260506194830 | 30 | 84 | 1.6 | 11.3 | 0.00 | 0.00 | 0.00 | 76 | 1009.9 |
| 20260506194327 | 30 | 306 | 8.0 | 12.9 | 0.00 | 0.00 | 0.00 | 73 | 1009.9 |
| 20260506193824 | 29 | 140 | 4.8 | 11.3 | 0.00 | 0.00 | 0.00 | 75 | 1010.1 |
| 20260506193321 | 30 | 146 | 1.6 | 9.7 | 0.00 | 0.00 | 0.00 | 76 | 1009.9 |
| 20260506192817 | 30 | 130 | 3.2 | 4.8 | 0.00 | 0.00 | 0.00 | 76 | 1010.1 |
| 20260506192314 | 29 | 165 | 4.8 | 12.9 | 0.00 | 0.00 | 0.00 | 77 | 1009.9 |
| 20260506191811 | 29 | 127 | 6.4 | 11.3 | 0.00 | 0.00 | 0.00 | 76 | 1010.0 |
| 20260506191307 | 29 | 322 | 1.6 | 12.9 | 0.00 | 0.00 | 0.00 | 76 | 1010.3 |
| 20260506190804 | 29 | 148 | 4.8 | 11.3 | 0.00 | 0.00 | 0.00 | 77 | 1010.2 |
| 20260506190301 | 30 | 113 | 6.4 | 11.3 | 0.00 | 0.00 | 0.00 | 76 | 1010.4 |
| 20260506185758 | 29 | 97 | 3.2 | 12.9 | 0.00 | 0.00 | 0.00 | 77 | 1010.3 |
| 20260506185254 | 29 | 125 | 4.8 | 6.4 | 0.00 | 0.00 | 0.00 | 77 | 1010.4 |
| 20260506184752 | 30 | 248 | 4.8 | 11.3 | 0.00 | 0.00 | 0.00 | 76 | 1010.5 |
| 20260506184249 | 30 | 320 | 4.8 | 9.7 | 0.00 | 0.00 | 0.00 | 74 | 1010.6 |
| 20260506183746 | 30 | 305 | 4.8 | 4.8 | 0.00 | 0.00 | 0.00 | 73 | 1010.5 |
| 20260506183246 | 30 | 106 | 4.8 | 9.7 | 0.00 | 0.00 | 0.00 | 74 | 1010.6 |
| 20260506182744 | 30 | 19 | 1.6 | 9.7 | 0.00 | 0.00 | 0.00 | 73 | 1010.6 |
| 20260506182241 | 30 | 108 | 1.6 | 6.4 | 0.00 | 0.00 | 0.00 | 74 | 1010.7 |
| 20260506181739 | 30 | 61 | 3.2 | 6.4 | 0.00 | 0.00 | 0.00 | 77 | 1010.9 |
| 20260506181236 | 30 | 116 | 3.2 | 6.4 | 0.00 | 0.00 | 0.00 | 77 | 1011.1 |
| 20260506180733 | 29 | 124 | 0.0 | 4.8 | 0.00 | 0.00 | 0.00 | 77 | 1011.0 |
| 20260506180234 | 30 | 151 | 4.8 | 6.4 | 0.00 | 0.00 | 0.00 | 76 | 1011.2 |
| 20260506175730 | 30 | 144 | 4.8 | 6.4 | 0.00 | 0.00 | 0.00 | 77 | 1011.2 |
| 20260506175227 | 29 | 56 | 0.0 | 4.8 | 0.00 | 0.00 | 0.00 | 78 | 1011.3 |
| 20260506174725 | 28 | 326 | 0.0 | 3.2 | 0.00 | 0.00 | 0.00 | 80 | 1011.3 |
| 20260506174221 | 28 | 191 | 1.6 | 4.8 | 0.00 | 0.00 | 0.00 | 80 | 1011.4 |
| 20260506173719 | 28 | 52 | 1.6 | 3.2 | 0.00 | 0.00 | 0.00 | 81 | 1011.3 |
| 20260506173216 | 28 | 115 | 3.2 | 6.4 | 0.00 | 0.00 | 0.00 | 82 | 1011.5 |
| 20260506172713 | 28 | 125 | 3.2 | 6.4 | 0.00 | 0.00 | 0.00 | 81 | 1011.7 |
| 20260506172209 | 28 | 126 | 0.0 | 3.2 | 0.00 | 0.00 | 0.00 | 82 | 1011.6 |
| 20260506171707 | 28 | 148 | 3.2 | 6.4 | 0.00 | 0.00 | 0.00 | 80 | 1011.7 |
| 20260506171204 | 28 | 149 | 6.4 | 6.4 | 0.00 | 0.00 | 0.00 | 79 | 1011.8 |
| 20260506170702 | 28 | 138 | 3.2 | 4.8 | 0.00 | 0.00 | 0.00 | 80 | 1011.7 |
| 20260506170158 | 28 | 111 | 3.2 | 6.4 | 0.00 | 0.00 | 0.00 | 83 | 1011.7 |
| 20260506165657 | 27 | 172 | 3.2 | 9.7 | 0.00 | 0.00 | 0.00 | 83 | 1011.7 |
| 20260506165153 | 27 | 149 | 1.6 | 6.4 | 0.00 | 0.00 | 0.00 | 83 | 1011.9 |
| 20260506164650 | 27 | 138 | 6.4 | 11.3 | 0.00 | 0.00 | 0.00 | 83 | 1011.7 |
| 20260506164148 | 27 | 96 | 4.8 | 9.7 | 0.00 | 0.00 | 0.00 | 83 | 1011.8 |
| 20260506163644 | 27 | 127 | 1.6 | 6.4 | 0.00 | 0.00 | 0.00 | 85 | 1011.6 |
| 20260506163139 | 27 | 148 | 3.2 | 4.8 | 0.00 | 0.00 | 0.00 | 86 | 1011.5 |
| 20260506162635 | 27 | 142 | 3.2 | 3.2 | 0.00 | 0.00 | 0.00 | 88 | 1011.5 |
| 20260506162133 | 26 | 121 | 1.6 | 4.8 | 0.00 | 0.00 | 0.00 | 89 | 1011.5 |
| 20260506161630 | 26 | 149 | 3.2 | 6.4 | 0.00 | 0.00 | 0.00 | 89 | 1011.4 |
| 20260506161127 | 26 | 125 | 6.4 | 12.9 | 0.00 | 0.00 | 0.00 | 88 | 1011.5 |
| 20260506160624 | 26 | 72 | 4.8 | 6.4 | 0.00 | 0.00 | 0.00 | 88 | 1011.2 |
| 20260506160121 | 26 | 121 | 3.2 | 4.8 | 0.00 | 0.00 | 0.00 | 89 | 1011.4 |
| 20260506155620 | 26 | 144 | 1.6 | 4.8 | 0.00 | 0.00 | 0.00 | 89 | 1011.2 |
| 20260506155117 | 26 | 96 | 3.2 | 3.2 | 0.00 | 0.00 | 0.00 | 91 | 1011.3 |
| 20260506153219 | 26 | 138 | 3.2 | 6.4 | 0.00 | 0.00 | 0.00 | 91 | 1011.1 |
| 20260506152715 | 26 | 124 | 1.6 | 6.4 | 0.00 | 0.00 | 0.00 | 90 | 1011.0 |
| 20260506152213 | 26 | 110 | 4.8 | 6.4 | 0.00 | 0.00 | 0.00 | 90 | 1010.9 |
| 20260506151712 | 26 | 156 | 3.2 | 11.3 | 0.00 | 0.00 | 0.00 | 90 | 1011.0 |
| 20260506151208 | 26 | 168 | 3.2 | 6.4 | 0.00 | 0.00 | 0.00 | 90 | 1011.0 |
| 20260506150704 | 26 | 155 | 4.8 | 6.4 | 0.00 | 0.00 | 0.00 | 90 | 1011.0 |
| 20260506150201 | 26 | 147 | 1.6 | 3.2 | 0.00 | 0.00 | 0.00 | 90 | 1010.8 |
| 20260506145658 | 26 | 142 | 3.2 | 9.7 | 0.00 | 0.00 | 0.00 | 90 | 1010.7 |
| 20260506145155 | 26 | 121 | 1.6 | 6.4 | 0.00 | 0.00 | 0.00 | 90 | 1010.6 |
| 20260506144653 | 26 | 74 | 3.2 | 9.7 | 0.00 | 0.00 | 0.00 | 90 | 1010.3 |
| 20260506144149 | 26 | 137 | 1.6 | 6.4 | 0.00 | 0.00 | 0.00 | 90 | 1010.5 |
| 20260506143647 | 26 | 136 | 6.4 | 9.7 | 0.00 | 0.00 | 0.00 | 90 | 1010.2 |
| 20260506143145 | 26 | 145 | 3.2 | 6.4 | 0.00 | 0.00 | 0.00 | 91 | 1010.3 |
| 20260506142643 | 26 | 138 | 1.6 | 6.4 | 0.00 | 0.00 | 0.00 | 91 | 1010.3 |
| 20260506142140 | 26 | 141 | 4.8 | 11.3 | 0.00 | 0.00 | 0.00 | 91 | 1010.4 |
| 20260506141638 | 26 | 143 | 6.4 | 9.7 | 0.00 | 0.00 | 0.00 | 91 | 1010.6 |
| 20260506141136 | 25 | 86 | 3.2 | 4.8 | 0.00 | 0.00 | 0.00 | 91 | 1010.2 |
| 20260506140633 | 25 | 116 | 3.2 | 6.4 | 0.00 | 0.00 | 0.00 | 91 | 1010.6 |
| 20260506140130 | 25 | 88 | 3.2 | 4.8 | 0.00 | 0.00 | 0.00 | 91 | 1010.5 |
| 20260506135627 | 25 | 126 | 1.6 | 4.8 | 0.00 | 0.00 | 0.00 | 91 | 1010.7 |
| 20260506135123 | 25 | 194 | 1.6 | 4.8 | 0.00 | 0.00 | 0.00 | 91 | 1010.5 |
| 20260506134620 | 25 | 145 | 0.0 | 4.8 | 0.00 | 0.00 | 0.00 | 92 | 1010.6 |
| 20260506134116 | 25 | 113 | 3.2 | 6.4 | 0.00 | 0.00 | 0.00 | 92 | 1010.7 |
| 20260506133614 | 25 | 99 | 3.2 | 4.8 | 0.00 | 0.00 | 0.00 | 93 | 1010.6 |
| 20260506133110 | 25 | 88 | 3.2 | 3.2 | 0.00 | 0.00 | 0.00 | 94 | 1010.6 |
| 20260506132608 | 25 | 165 | 3.2 | 4.8 | 0.00 | 0.00 | 0.00 | 95 | 1010.6 |
| 20260506132104 | 25 | 90 | 1.6 | 3.2 | 0.00 | 0.00 | 0.00 | 95 | 1010.6 |
| 20260506131602 | 25 | 147 | 3.2 | 3.2 | 0.00 | 0.00 | 0.00 | 95 | 1010.7 |
| 20260506131058 | 24 | 127 | 0.0 | 4.8 | 0.00 | 0.00 | 0.00 | 96 | 1010.7 |
| 20260506130555 | 24 | 107 | 1.6 | 3.2 | 0.00 | 0.00 | 0.00 | 96 | 1010.6 |
| 20260506130053 | 24 | 125 | 1.6 | 4.8 | 0.00 | 0.00 | 0.00 | 96 | 1010.7 |
| 20260506125551 | 24 | 175 | 0.0 | 1.6 | 0.00 | 0.00 | 0.00 | 96 | 1010.5 |
| 20260506125048 | 24 | 140 | 1.6 | 3.2 | 0.00 | 0.00 | 0.00 | 96 | 1010.4 |
| 20260506124546 | 24 | 128 | 0.0 | 3.2 | 0.00 | 0.00 | 0.00 | 96 | 1010.6 |
| 20260506124043 | 24 | 122 | 1.6 | 3.2 | 0.00 | 0.00 | 0.00 | 96 | 1010.6 |
| 20260506123541 | 24 | 139 | 0.0 | 4.8 | 0.00 | 0.00 | 0.00 | 96 | 1010.5 |
| 20260506123039 | 24 | 148 | 3.2 | 4.8 | 0.00 | 0.00 | 0.00 | 96 | 1010.4 |
| 20260506122535 | 24 | 117 | 1.6 | 4.8 | 0.00 | 0.00 | 0.00 | 96 | 1010.4 |
| 20260506122034 | 24 | 127 | 0.0 | 3.2 | 0.00 | 0.00 | 0.00 | 96 | 1010.3 |
| 20260506121531 | 24 | 121 | 3.2 | 4.8 | 0.00 | 0.00 | 0.00 | 96 | 1010.4 |
| 20260506121027 | 24 | 140 | 3.2 | 4.8 | 0.00 | 0.00 | 0.00 | 96 | 1010.3 |
| 20260506120525 | 24 | 134 | 1.6 | 4.8 | 0.00 | 0.00 | 0.00 | 96 | 1010.3 |
| 20260506120022 | 23 | 143 | 0.0 | 3.2 | 0.00 | 0.00 | 0.00 | 96 | 1010.2 |
| 20260506115520 | 23 | 123 | 0.0 | 3.2 | 0.00 | 0.00 | 0.00 | 96 | 1010.0 |
| 20260506115018 | 23 | 136 | 1.6 | 1.6 | 0.00 | 0.00 | 0.00 | 96 | 1010.2 |
| 20260506114515 | 23 | 127 | 0.0 | 1.6 | 0.00 | 0.00 | 0.00 | 96 | 1010.0 |
| 20260506114014 | 23 | 114 | 0.0 | 3.2 | 0.00 | 0.00 | 0.00 | 97 | 1009.8 |
| 20260506113511 | 23 | 124 | 0.0 | 1.6 | 0.00 | 0.00 | 0.00 | 96 | 1009.7 |
| 20260506113008 | 23 | 154 | 1.6 | 3.2 | 0.00 | 0.00 | 0.00 | 96 | 1009.8 |
| 20260506112505 | 23 | 144 | 1.6 | 3.2 | 0.00 | 0.00 | 0.00 | 96 | 1009.7 |
| 20260506112002 | 23 | 138 | 0.0 | 3.2 | 0.00 | 0.00 | 0.00 | 96 | 1009.7 |
| 20260506111500 | 23 | 135 | 0.0 | 3.2 | 0.00 | 0.00 | 0.00 | 96 | 1009.6 |
| 20260506110957 | 23 | 113 | 3.2 | 4.8 | 0.00 | 0.00 | 0.00 | 96 | 1009.6 |
| 20260506110455 | 23 | 136 | 3.2 | 3.2 | 0.00 | 0.00 | 0.00 | 96 | 1009.5 |
| 20260506105951 | 23 | 110 | 1.6 | 4.8 | 0.00 | 0.00 | 0.00 | 96 | 1009.7 |
| 20260506105447 | 23 | 134 | 1.6 | 3.2 | 0.00 | 0.00 | 0.00 | 96 | 1009.5 |
| 20260506104945 | 23 | 149 | 1.6 | 4.8 | 0.00 | 0.00 | 0.00 | 96 | 1009.7 |
| 20260506104443 | 23 | 135 | 3.2 | 3.2 | 0.00 | 0.00 | 0.00 | 96 | 1009.8 |
| 20260506103941 | 23 | 130 | 1.6 | 3.2 | 0.00 | 0.00 | 0.00 | 96 | 1009.5 |
| 20260506103438 | 23 | 117 | 3.2 | 4.8 | 0.00 | 0.00 | 0.00 | 96 | 1009.7 |
| 20260506102935 | 23 | 145 | 0.0 | 3.2 | 0.00 | 0.00 | 0.00 | 96 | 1009.9 |
| 20260506102433 | 23 | 125 | 0.0 | 3.2 | 0.00 | 0.00 | 0.00 | 96 | 1009.7 |
| 20260506101930 | 23 | 139 | 3.2 | 4.8 | 0.00 | 0.00 | 0.00 | 96 | 1009.7 |
| 20260506101426 | 23 | 144 | 1.6 | 3.2 | 0.00 | 0.00 | 0.00 | 96 | 1009.6 |
| 20260506100924 | 23 | 143 | 1.6 | 3.2 | 0.00 | 0.00 | 0.00 | 96 | 1009.5 |
| 20260506100422 | 23 | 154 | 3.2 | 3.2 | 0.00 | 0.00 | 0.00 | 96 | 1009.4 |
| 20260506095919 | 23 | 94 | 1.6 | 3.2 | 0.00 | 0.00 | 0.00 | 96 | 1009.5 |
| 20260506095418 | 23 | 147 | 1.6 | 1.6 | 0.00 | 0.00 | 0.00 | 95 | 1009.5 |
| 20260506094914 | 23 | 157 | 0.0 | 3.2 | 0.00 | 0.00 | 0.00 | 95 | 1009.4 |
| 20260506094413 | 23 | 186 | 1.6 | 1.6 | 0.00 | 0.00 | 0.00 | 95 | 1009.5 |
| 20260506093910 | 23 | 122 | 1.6 | 1.6 | 0.00 | 0.00 | 0.00 | 95 | 1009.4 |
| 20260506093407 | 23 | 111 | 0.0 | 3.2 | 0.00 | 0.00 | 0.00 | 95 | 1009.3 |
| 20260506092905 | 23 | 120 | 0.0 | 0.0 | 0.00 | 0.00 | 0.00 | 94 | 1009.3 |
| 20260506092403 | 23 | 126 | 0.0 | 0.0 | 0.00 | 0.00 | 0.00 | 94 | 1009.6 |
| 20260506091859 | 23 | 115 | 0.0 | 0.0 | 0.00 | 0.00 | 0.00 | 94 | 1009.4 |
| 20260506091357 | 23 | 131 | 0.0 | 0.0 | 0.00 | 0.00 | 0.00 | 94 | 1009.5 |
| 20260506090854 | 23 | 128 | 0.0 | 1.6 | 0.00 | 0.00 | 0.00 | 93 | 1009.7 |
| 20260506090352 | 23 | 126 | 0.0 | 1.6 | 0.00 | 0.00 | 0.00 | 93 | 1009.3 |
| 20260506085848 | 23 | 131 | 0.0 | 3.2 | 0.00 | 0.00 | 0.00 | 93 | 1009.4 |
| 20260506085345 | 23 | 139 | 1.6 | 3.2 | 0.00 | 0.00 | 0.00 | 93 | 1009.5 |
| 20260506084841 | 24 | 102 | 4.8 | 4.8 | 0.00 | 0.00 | 0.00 | 93 | 1009.5 |
| 20260506084338 | 23 | 135 | 1.6 | 3.2 | 0.00 | 0.00 | 0.00 | 93 | 1009.7 |
| 20260506083834 | 24 | 132 | 1.6 | 1.6 | 0.00 | 0.00 | 0.00 | 93 | 1009.4 |
| 20260506083332 | 24 | 182 | 3.2 | 4.8 | 0.00 | 0.00 | 0.00 | 92 | 1009.6 |
| 20260506082829 | 24 | 99 | 3.2 | 3.2 | 0.00 | 0.00 | 0.00 | 92 | 1009.7 |
| 20260506082326 | 24 | 138 | 3.2 | 4.8 | 0.00 | 0.00 | 0.00 | 92 | 1009.4 |
| 20260506081822 | 24 | 144 | 3.2 | 3.2 | 0.00 | 0.00 | 0.00 | 92 | 1009.7 |
| 20260506081320 | 24 | 137 | 1.6 | 4.8 | 0.00 | 0.00 | 0.00 | 91 | 1009.7 |
| 20260506080817 | 24 | 142 | 1.6 | 6.4 | 0.00 | 0.00 | 0.00 | 91 | 1009.6 |
| 20260506080313 | 24 | 113 | 3.2 | 6.4 | 0.00 | 0.00 | 0.00 | 91 | 1009.7 |
| 20260506073258 | 25 | 307 | 1.6 | 9.7 | 0.00 | 0.00 | 0.00 | 91 | 1010.1 |
| 20260506072754 | 25 | 152 | 4.8 | 6.4 | 0.00 | 0.00 | 0.00 | 91 | 1009.9 |
| 20260506072252 | 25 | 155 | 1.6 | 4.8 | 0.00 | 0.00 | 0.00 | 91 | 1010.2 |
| 20260506071750 | 25 | 125 | 3.2 | 3.2 | 0.00 | 0.00 | 0.00 | 91 | 1010.3 |
| 20260506071248 | 25 | 136 | 1.6 | 4.8 | 0.00 | 0.00 | 0.00 | 91 | 1010.1 |
| 20260506070744 | 25 | 133 | 1.6 | 3.2 | 0.00 | 0.00 | 0.00 | 91 | 1010.3 |
| 20260506070241 | 25 | 134 | 1.6 | 3.2 | 0.00 | 0.00 | 0.00 | 91 | 1010.3 |
| 20260506062218 | 25 | 138 | 1.6 | 3.2 | 0.00 | 0.00 | 0.00 | 91 | 1010.5 |
| 20260506061714 | 25 | 143 | 0.0 | 1.6 | 0.00 | 0.00 | 0.00 | 90 | 1010.5 |
| 20260506061212 | 25 | 103 | 1.6 | 3.2 | 0.00 | 0.00 | 0.00 | 90 | 1010.4 |
| 20260506060711 | 25 | 118 | 0.0 | 3.2 | 0.00 | 0.00 | 0.00 | 90 | 1010.5 |
| 20260506060207 | 25 | 106 | 0.0 | 1.6 | 0.00 | 0.00 | 0.00 | 90 | 1010.3 |
| 20260506051139 | 25 | 192 | 6.4 | 9.7 | 0.00 | 0.00 | 0.00 | 90 | 1010.2 |
| 20260506050637 | 25 | 133 | 4.8 | 9.7 | 0.00 | 0.00 | 0.00 | 90 | 1010.3 |
| 20260506050134 | 25 | 94 | 3.2 | 3.2 | 0.00 | 0.00 | 0.00 | 90 | 1010.4 |
| 20260506045127 | 25 | 93 | 0.0 | 3.2 | 0.00 | 0.00 | 0.00 | 90 | 1010.6 |
| 20260506044625 | 25 | 150 | 3.2 | 4.8 | 0.00 | 0.00 | 0.00 | 90 | 1010.4 |
| 20260506044122 | 25 | 88 | 8.0 | 9.7 | 0.00 | 0.00 | 0.00 | 90 | 1010.3 |
| 20260506043619 | 25 | 148 | 3.2 | 3.2 | 0.00 | 0.00 | 0.00 | 90 | 1010.4 |
| 20260506043117 | 25 | 141 | 4.8 | 4.8 | 0.00 | 0.00 | 0.00 | 90 | 1010.6 |
| 20260506042616 | 25 | 151 | 1.6 | 4.8 | 0.00 | 0.00 | 0.00 | 90 | 1010.5 |
| 20260506042113 | 25 | 143 | 3.2 | 4.8 | 0.00 | 0.00 | 0.00 | 90 | 1010.3 |
| 20260506041612 | 25 | 140 | 3.2 | 6.4 | 0.00 | 0.00 | 0.00 | 90 | 1010.1 |
| 20260506041108 | 25 | 158 | 4.8 | 6.4 | 0.00 | 0.00 | 0.00 | 91 | 1010.3 |
| 20260506040606 | 24 | 147 | 3.2 | 9.7 | 0.00 | 0.00 | 0.00 | 91 | 1010.0 |
| 20260506035559 | 24 | 151 | 4.8 | 6.4 | 0.00 | 0.00 | 0.00 | 91 | 1010.1 |
| 20260506035056 | 25 | 138 | 3.2 | 9.7 | 0.00 | 0.00 | 0.00 | 91 | 1010.0 |
| 20260506034553 | 25 | 140 | 1.6 | 4.8 | 0.00 | 0.00 | 0.00 | 90 | 1009.9 |
| 20260506034050 | 25 | 118 | 4.8 | 6.4 | 0.00 | 0.00 | 0.00 | 90 | 1010.0 |
| 20260506033547 | 25 | 121 | 4.8 | 9.7 | 0.00 | 0.00 | 0.00 | 90 | 1010.0 |
| 20260506033044 | 25 | 153 | 6.4 | 9.7 | 0.00 | 0.00 | 0.00 | 90 | 1009.8 |
| 20260506032542 | 25 | 144 | 6.4 | 11.3 | 0.00 | 0.00 | 0.00 | 89 | 1010.0 |
| 20260506032038 | 25 | 81 | 8.0 | 11.3 | 0.00 | 0.00 | 0.00 | 88 | 1009.9 |
| 20260506031536 | 25 | 115 | 6.4 | 11.3 | 0.00 | 0.00 | 0.00 | 88 | 1009.8 |
| 20260506031033 | 25 | 137 | 6.4 | 11.3 | 0.00 | 0.00 | 0.00 | 87 | 1009.7 |
| 20260506030531 | 25 | 144 | 6.4 | 6.4 | 0.00 | 0.00 | 0.00 | 87 | 1009.8 |
| 20260506030028 | 25 | 145 | 6.4 | 12.9 | 0.00 | 0.00 | 0.00 | 87 | 1009.7 |
| 20260506025525 | 25 | 113 | 3.2 | 9.7 | 0.00 | 0.00 | 0.00 | 87 | 1009.8 |
| 20260506025021 | 25 | 167 | 6.4 | 9.7 | 0.00 | 0.00 | 0.00 | 87 | 1009.5 |
| 20260506024518 | 25 | 238 | 1.6 | 4.8 | 0.00 | 0.00 | 0.00 | 86 | 1009.6 |
| 20260506024014 | 25 | 286 | 3.2 | 14.5 | 0.00 | 0.00 | 0.00 | 86 | 1009.4 |
| 20260506023510 | 25 | 131 | 6.4 | 6.4 | 0.00 | 0.00 | 0.00 | 86 | 1009.3 |
| 20260506023008 | 25 | 134 | 4.8 | 6.4 | 0.00 | 0.00 | 0.00 | 86 | 1009.4 |
| 20260506022505 | 25 | 127 | 4.8 | 9.7 | 0.00 | 0.00 | 0.00 | 86 | 1009.5 |
| 20260506022003 | 25 | 152 | 3.2 | 11.3 | 0.00 | 0.00 | 0.00 | 86 | 1009.3 |
| 20260506021500 | 25 | 170 | 8.0 | 12.9 | 0.00 | 0.00 | 0.00 | 85 | 1009.3 |
| 20260506020957 | 25 | 191 | 3.2 | 12.9 | 0.00 | 0.00 | 0.00 | 85 | 1009.2 |
| 20260506020455 | 25 | 99 | 3.2 | 11.3 | 0.00 | 0.00 | 0.00 | 85 | 1009.1 |
| 20260506015951 | 25 | 187 | 4.8 | 9.7 | 0.00 | 0.00 | 0.00 | 86 | 1008.8 |
| 20260506015449 | 25 | 287 | 1.6 | 6.4 | 0.00 | 0.00 | 0.00 | 86 | 1008.8 |
| 20260506014946 | 25 | 168 | 3.2 | 6.4 | 0.00 | 0.00 | 0.00 | 86 | 1008.7 |
| 20260506014443 | 25 | 129 | 3.2 | 11.3 | 0.00 | 0.00 | 0.00 | 85 | 1008.9 |
| 20260506013939 | 25 | 128 | 4.8 | 9.7 | 0.00 | 0.00 | 0.00 | 85 | 1008.5 |
| 20260506013437 | 25 | 134 | 0.0 | 11.3 | 0.00 | 0.00 | 0.00 | 85 | 1008.5 |
| 20260506012933 | 25 | 181 | 6.4 | 11.3 | 0.00 | 0.00 | 0.00 | 85 | 1008.6 |
| 20260506012430 | 25 | 180 | 0.0 | 4.8 | 0.00 | 0.00 | 0.00 | 85 | 1008.6 |
| 20260506011927 | 25 | 149 | 6.4 | 11.3 | 0.00 | 0.00 | 0.00 | 85 | 1008.5 |
| 20260506011424 | 26 | 222 | 3.2 | 9.7 | 0.00 | 0.00 | 0.00 | 84 | 1008.3 |
| 20260506010921 | 26 | 91 | 6.4 | 11.3 | 0.00 | 0.00 | 0.00 | 84 | 1008.4 |
| 20260506010420 | 26 | 256 | 1.6 | 4.8 | 0.00 | 0.00 | 0.00 | 84 | 1008.3 |
| 20260506005915 | 26 | 110 | 6.4 | 9.7 | 0.00 | 0.00 | 0.00 | 84 | 1008.1 |
| 20260506005414 | 26 | 356 | 1.6 | 11.3 | 0.00 | 0.00 | 0.00 | 84 | 1008.1 |
| 20260506004909 | 26 | 169 | 6.4 | 9.7 | 0.00 | 0.00 | 0.00 | 83 | 1008.0 |
| 20260506004407 | 26 | 82 | 3.2 | 6.4 | 0.00 | 0.00 | 0.00 | 83 | 1008.1 |
| 20260506003902 | 26 | 197 | 6.4 | 11.3 | 0.00 | 0.00 | 0.00 | 83 | 1007.9 |
| 20260506003359 | 26 | 164 | 4.8 | 11.3 | 0.00 | 0.00 | 0.00 | 83 | 1008.0 |
| 20260506002855 | 26 | 116 | 6.4 | 11.3 | 0.00 | 0.00 | 0.00 | 82 | 1007.8 |
| 20260506002352 | 26 | 145 | 3.2 | 9.7 | 0.00 | 0.00 | 0.00 | 82 | 1008.0 |
| 20260506001848 | 26 | 125 | 1.6 | 12.9 | 0.00 | 0.00 | 0.00 | 82 | 1007.8 |
| 20260506001344 | 26 | 132 | 6.4 | 14.5 | 0.00 | 0.00 | 0.00 | 82 | 1007.8 |
| 20260506000841 | 26 | 124 | 8.0 | 14.5 | 0.00 | 0.00 | 0.00 | 81 | 1007.8 |
| 20260506000340 | 26 | 123 | 8.0 | 16.1 | 0.00 | 0.00 | 0.00 | 81 | 1008.0 |
| 20260505235836 | 26 | 120 | 8.0 | 12.9 | 0.00 | 0.00 | 0.00 | 81 | 1007.9 |
| 20260505235333 | 26 | 123 | 3.2 | 12.9 | 0.00 | 0.00 | 0.00 | 81 | 1007.7 |
| 20260505234830 | 26 | 114 | 3.2 | 16.1 | 0.00 | 0.00 | 0.00 | 80 | 1007.8 |
| 20260505234328 | 26 | 135 | 3.2 | 12.9 | 0.00 | 0.00 | 0.00 | 80 | 1007.9 |
| 20260505233825 | 26 | 90 | 3.2 | 11.3 | 0.00 | 0.00 | 0.00 | 80 | 1007.9 |
| 20260505233323 | 26 | 126 | 3.2 | 9.7 | 0.00 | 0.00 | 0.00 | 80 | 1007.9 |
| 20260505232820 | 27 | 81 | 6.4 | 11.3 | 0.00 | 0.00 | 0.00 | 80 | 1007.6 |
| 20260505232317 | 27 | 146 | 8.0 | 9.7 | 0.00 | 0.00 | 0.00 | 79 | 1007.9 |
| 20260505231814 | 27 | 123 | 1.6 | 4.8 | 0.00 | 0.00 | 0.00 | 80 | 1007.9 |
| 20260505231312 | 27 | 246 | 4.8 | 6.4 | 0.00 | 0.00 | 0.00 | 79 | 1008.2 |
| 20260505230810 | 27 | 179 | 4.8 | 16.1 | 0.00 | 0.00 | 0.00 | 79 | 1008.0 |
| 20260505230307 | 27 | 157 | 6.4 | 11.3 | 0.00 | 0.00 | 0.00 | 79 | 1008.1 |
| 20260505225803 | 27 | 134 | 6.4 | 9.7 | 0.00 | 0.00 | 0.00 | 78 | 1007.9 |
| 20260505225300 | 27 | 133 | 8.0 | 14.5 | 0.00 | 0.00 | 0.00 | 78 | 1007.9 |
| 20260505224755 | 27 | 148 | 8.0 | 14.5 | 0.00 | 0.00 | 0.00 | 77 | 1008.1 |
| 20260505224253 | 27 | 284 | 6.4 | 11.3 | 0.00 | 0.00 | 0.00 | 77 | 1008.0 |
| 20260505223751 | 27 | 130 | 4.8 | 9.7 | 0.00 | 0.00 | 0.00 | 76 | 1008.1 |
| 20260505223247 | 27 | 164 | 3.2 | 9.7 | 0.00 | 0.00 | 0.00 | 76 | 1007.9 |
| 20260505222743 | 28 | 310 | 4.8 | 12.9 | 0.00 | 0.00 | 0.00 | 76 | 1008.0 |
| 20260505222239 | 27 | 142 | 9.7 | 14.5 | 0.00 | 0.00 | 0.00 | 76 | 1008.1 |
| 20260505221737 | 28 | 146 | 6.4 | 11.3 | 0.00 | 0.00 | 0.00 | 76 | 1008.1 |
| 20260505221233 | 28 | 106 | 9.7 | 17.7 | 0.00 | 0.00 | 0.00 | 75 | 1008.2 |
| 20260505220730 | 28 | 233 | 0.0 | 11.3 | 0.00 | 0.00 | 0.00 | 75 | 1008.3 |
| 20260505220227 | 28 | 157 | 8.0 | 14.5 | 0.00 | 0.00 | 0.00 | 73 | 1008.2 |
| 20260505215726 | 28 | 167 | 3.2 | 6.4 | 0.00 | 0.00 | 0.00 | 75 | 1008.0 |
| 20260505215223 | 28 | 123 | 6.4 | 12.9 | 0.00 | 0.00 | 0.00 | 75 | 1008.1 |
| 20260505214720 | 28 | 130 | 6.4 | 6.4 | 0.00 | 0.00 | 0.00 | 76 | 1008.3 |
| 20260505214218 | 28 | 249 | 3.2 | 6.4 | 0.00 | 0.00 | 0.00 | 76 | 1008.4 |
| 20260505213715 | 28 | 331 | 1.6 | 9.7 | 0.00 | 0.00 | 0.00 | 76 | 1008.6 |